Showing default

AEHF 4 (USA 288), 43651

Orbit data source: Space-Track

AEHF 4 (USA 288), 43651 is a payload satellite owned by USAF MCSW (US) in GEO that was launched on Wed, 17 Oct 2018 UTC via an ATLAS V 551 launch vehicle from the Air Force Eastern Test Range (AFETR). Payload-class satellites include a variety of spacecraft equipped with specific instruments for various scientific and technological missions. These include communications satellites like Starlink; space stations such as the ISS; scientific satellites like the Hubble; Earth observation satellites from companies like Planet Labs, Umbra, and HawkEye 360; GPS; miniature CubeSats for education and research; and military/defense satellites.

Loading next visibility...
Identifier
43651, 2018-079A
Orbit
GEO
Country
Flag of USUS
Related business
Manufacturer
LMSS
Mission
Operational Defense Communications
Bus & Motor
A2100M, BT-4/AJ-EP?
Mass
6,200 kg wet, ~4,000 kg dry
Launch date (UTC)
2018-10-17 (7 years ago)
Launch vehicle
ATLAS V 551
Launch site
Air Force Eastern Test Range (AFETR)
Object type
Payload
Rocket body
Debris
Shape & HBR
Box + 2 Pan, 13.5 m
Radar Cross Section
35.027 m², Large (>1 m²)

Expand to show TLE details & history
Last TLE update: 21 hours ago

TLE from 21 hours ago
0 AEHF 4 (USA 288)
1 43651U 18079A   25242.19836488 -.00000269  00000-0  00000-0 0  9994
2 43651   1.5249 339.1861 0056560  12.5335 350.6451  1.00277249 25377
Epoch: 2025-08-30T04:45Z
TLE epoch observation values (Epoch: 2025-08-30T04:45:38.725Z)
Latitude
0.07349°
Longitude
-67.79119°
Altitude
35,548.381 km
Speed
3.092 km/s
True Right ascension
22h 49m 01s
True Declination
0° 04' 24"
Sunlit
Object was in daylight at epoch
Visualization orbit readout
Latitude
Unknown
Longitude
Unknown
Altitude
Unknown
Speed
Unknown
Apparent Right ascension
Unknown
Apparent Declination
Unknown
Sunlit
N/A
Visualization observer readout
Local Sidereal Time
16:55:56
Azimuth
Unknown
Elevation
Unknown
Doppler factor
Unknown
Orbital elements
Apogee altitude
36,024.614 km
Perigee altitude
35,547.652 km
Semi-major axis
42,164.27 km
Eccentricity
0.00566
Inclination
1.5249°
RAAN
339.1861°
Arg. of periapsis
12.5335°
True anomaly
350.53901°
Mean anomaly
350.6451°
Eccentric anomaly
350.59213°
Mean motion
0.25068 °/min
Orbital period
1,436.07 mins
BSTAR
0
Loading maneuver chart data...
Computing Atmospheric mass density...

Documentation

Showing up to 5 results
|